Terminal Aerodrome Forecast
Issued by NWS Milwaukee/Sullivan, WI

Home | Current Version | Previous Version | Text Only | Print | Product List | Glossary On
Versions: 1 2 3 4 5 6 7 8 9 10 11 12 13 14 15 16 17 18 19 20 21 22 23 24 25 26 27 28 29 30 31 32 33 34 35 36 37 38 39 40 41 42 43 44 45 46 47 48 49 50
000
FTUS43 KMKX 271506 AAA
TAFMSN
TAF AMD
KMSN 271506Z 2715/2812 01007KT 1 1/2SM BR OVC005
     FM271700 05004KT 4SM BR OVC012
     FM272200 00000KT P6SM BKN020
     FM280400 00000KT P6SM SCT025
     FM280900 17003KT P6SM BKN110=

USA.gov is the U.S. government's official web portal to all federal, state and local government web resources and services.